Time,TemperatureF,DewpointF,PressureIn,WindDirection,WindDirectionDegrees,WindSpeedMPH,WindSpeedGustMPH,Humidity,HourlyPrecipIn,Conditions,Clouds,dailyrainin,SoftwareType,DateUTC
2013-10-17 00:00:00,53.0,-99.9,29.91,WSW,250,8.0,-999.0,-999,-99.99,,,-99.99,,2013-10-17 05:00:00,
2013-10-17 00:42:00,53.0,-99.9,29.91,WSW,250,8.0,-999.0,-999,-99.99,,,-99.99,,2013-10-17 05:42:00,
2013-10-17 00:52:00,53.0,-99.9,29.91,WSW,250,8.0,-999.0,-999,-99.99,,,-99.99,,2013-10-17 05:52:00,
2013-10-17 01:00:00,54.0,-99.9,29.91,WNW,300,11.0,-999.0,-999,-99.99,,,-99.99,,2013-10-17 06:00:00,
2013-10-17 01:42:00,54.0,-99.9,29.91,WNW,300,11.0,-999.0,-999,-99.99,,,-99.99,,2013-10-17 06:42:00,
2013-10-17 01:52:00,54.0,-99.9,29.91,WNW,300,11.0,-999.0,-999,-99.99,,,-99.99,,2013-10-17 06:52:00,
2013-10-17 02:00:00,53.0,-99.9,29.89,West,260,13.0,-999.0,-999,-99.99,,,-99.99,,2013-10-17 07:00:00,
2013-10-17 02:43:00,53.0,-99.9,29.89,West,260,13.0,-999.0,-999,-99.99,,,-99.99,,2013-10-17 07:43:00,
2013-10-17 02:52:00,53.0,-99.9,29.89,West,260,13.0,-999.0,-999,-99.99,,,-99.99,,2013-10-17 07:52:00,
2013-10-17 03:00:00,53.0,-99.9,29.91,SSW,200,6.0,-999.0,-999,-99.99,,,-99.99,,2013-10-17 08:00:00,
2013-10-17 03:42:00,53.0,-99.9,29.91,SSW,200,6.0,-999.0,-999,-99.99,,,-99.99,,2013-10-17 08:42:00,
2013-10-17 03:52:00,53.0,-99.9,29.91,SSW,200,6.0,-999.0,-999,-99.99,,,-99.99,,2013-10-17 08:52:00,
2013-10-17 04:00:00,51.0,-99.9,29.90,SSW,200,5.0,-999.0,-999,-99.99,,,-99.99,,2013-10-17 09:00:00,
2013-10-17 04:43:00,51.0,-99.9,29.90,SSW,200,5.0,-999.0,-999,-99.99,,,-99.99,,2013-10-17 09:43:00,
2013-10-17 04:53:00,51.0,-99.9,29.90,SSW,200,5.0,-999.0,-999,-99.99,,,-99.99,,2013-10-17 09:53:00,
2013-10-17 05:00:00,51.0,-99.9,29.91,SW,220,5.0,-999.0,-999,-99.99,,,-99.99,,2013-10-17 10:00:00,
2013-10-17 05:42:00,51.0,-99.9,29.91,SW,220,5.0,-999.0,-999,-99.99,,,-99.99,,2013-10-17 10:42:00,
2013-10-17 05:53:00,51.0,-99.9,29.91,SW,220,5.0,-999.0,-999,-99.99,,,-99.99,,2013-10-17 10:53:00,
2013-10-17 06:00:00,53.0,-99.9,29.91,WSW,250,11.0,-999.0,-999,-99.99,,,-99.99,,2013-10-17 11:00:00,
2013-10-17 06:42:00,53.0,-99.9,29.91,WSW,250,11.0,-999.0,-999,-99.99,,,-99.99,,2013-10-17 11:42:00,
2013-10-17 06:52:00,53.0,-99.9,29.91,WSW,250,11.0,-999.0,-999,-99.99,,,-99.99,,2013-10-17 11:52:00,
2013-10-17 07:00:00,50.0,-99.9,29.90,SW,220,14.0,-999.0,-999,-99.99,,,-99.99,,2013-10-17 12:00:00,
2013-10-17 07:42:00,50.0,-99.9,29.90,SW,220,14.0,-999.0,-999,-99.99,,,-99.99,,2013-10-17 12:42:00,
2013-10-17 07:52:00,50.0,-99.9,29.90,SW,220,14.0,-999.0,-999,-99.99,,,-99.99,,2013-10-17 12:52:00,
2013-10-17 08:00:00,48.0,-99.9,29.91,NNE,20,1.0,-999.0,-999,-99.99,,,-99.99,,2013-10-17 13:00:00,
2013-10-17 08:42:00,48.0,-99.9,29.91,NNE,20,1.0,-999.0,-999,-99.99,,,-99.99,,2013-10-17 13:42:00,
2013-10-17 08:52:00,48.0,-99.9,29.91,NNE,20,1.0,-999.0,-999,-99.99,,,-99.99,,2013-10-17 13:52:00,
2013-10-17 09:00:00,50.0,-99.9,29.91,NNE,30,1.0,-999.0,-999,-99.99,,,-99.99,,2013-10-17 14:00:00,
2013-10-17 09:42:00,50.0,-99.9,29.91,NNE,30,1.0,-999.0,-999,-99.99,,,-99.99,,2013-10-17 14:42:00,
2013-10-17 09:52:00,50.0,-99.9,29.91,NNE,30,1.0,-999.0,-999,-99.99,,,-99.99,,2013-10-17 14:52:00,
2013-10-17 10:00:00,50.0,-99.9,29.91,NNE,20,2.0,-999.0,-999,-99.99,,,-99.99,,2013-10-17 15:00:00,
2013-10-17 10:43:00,50.0,-99.9,29.91,NNE,20,2.0,-999.0,-999,-99.99,,,-99.99,,2013-10-17 15:43:00,
2013-10-17 10:54:00,50.0,-99.9,29.91,NNE,20,2.0,-999.0,-999,-99.99,,,-99.99,,2013-10-17 15:54:00,
2013-10-17 11:00:00,51.0,-99.9,29.88,South,190,1.0,-999.0,-999,-99.99,,,-99.99,,2013-10-17 16:00:00,
2013-10-17 11:43:00,51.0,-99.9,29.88,South,190,1.0,-999.0,-999,-99.99,,,-99.99,,2013-10-17 16:43:00,
2013-10-17 11:54:00,51.0,-99.9,29.88,South,190,1.0,-999.0,-999,-99.99,,,-99.99,,2013-10-17 16:54:00,
2013-10-17 12:00:00,52.0,-99.9,29.85,SE,140,1.0,-999.0,-999,-99.99,,,-99.99,,2013-10-17 17:00:00,
2013-10-17 12:42:00,52.0,-99.9,29.85,SE,140,1.0,-999.0,-999,-99.99,,,-99.99,,2013-10-17 17:42:00,
2013-10-17 12:53:00,52.0,-99.9,29.85,SE,140,1.0,-999.0,-999,-99.99,,,-99.99,,2013-10-17 17:53:00,
2013-10-17 13:00:00,51.0,-99.9,29.83,North,10,2.0,-999.0,-999,-99.99,,,-99.99,,2013-10-17 18:00:00,
2013-10-17 13:42:00,51.0,-99.9,29.83,North,10,2.0,-999.0,-999,-99.99,,,-99.99,,2013-10-17 18:42:00,
2013-10-17 13:52:00,51.0,-99.9,29.83,North,10,2.0,-999.0,-999,-99.99,,,-99.99,,2013-10-17 18:52:00,
2013-10-17 14:00:00,50.0,-99.9,29.83,SSW,200,2.0,-999.0,-999,-99.99,,,-99.99,,2013-10-17 19:00:00,
2013-10-17 14:42:00,50.0,-99.9,29.83,SSW,200,2.0,-999.0,-999,-99.99,,,-99.99,,2013-10-17 19:42:00,
2013-10-17 14:53:00,50.0,-99.9,29.83,SSW,200,2.0,-999.0,-999,-99.99,,,-99.99,,2013-10-17 19:53:00,
2013-10-17 15:00:00,50.0,-99.9,29.81,SSW,200,3.0,-999.0,-999,-99.99,,,-99.99,,2013-10-17 20:00:00,
2013-10-17 15:42:00,50.0,-99.9,29.81,SSW,200,3.0,-999.0,-999,-99.99,,,-99.99,,2013-10-17 20:42:00,
2013-10-17 15:52:00,50.0,-99.9,29.81,SSW,200,3.0,-999.0,-999,-99.99,,,-99.99,,2013-10-17 20:52:00,
2013-10-17 16:00:00,51.0,-99.9,29.80,NNW,340,2.0,-999.0,-999,-99.99,,,-99.99,,2013-10-17 21:00:00,
2013-10-17 16:44:00,51.0,-99.9,29.80,NNW,340,2.0,-999.0,-999,-99.99,,,-99.99,,2013-10-17 21:44:00,
2013-10-17 16:54:00,51.0,-99.9,29.80,NNW,340,2.0,-999.0,-999,-99.99,,,-99.99,,2013-10-17 21:54:00,
2013-10-17 17:00:00,51.0,-99.9,29.80,SW,220,17.0,-999.0,-999,-99.99,,,-99.99,,2013-10-17 22:00:00,
2013-10-17 17:43:00,51.0,-99.9,29.80,SW,220,17.0,-999.0,-999,-99.99,,,-99.99,,2013-10-17 22:43:00,
2013-10-17 17:53:00,51.0,-99.9,29.80,SW,220,17.0,-999.0,-999,-99.99,,,-99.99,,2013-10-17 22:53:00,
2013-10-17 18:00:00,54.0,-99.9,29.81,WSW,240,21.0,-999.0,-999,-99.99,,,-99.99,,2013-10-17 23:00:00,
2013-10-17 18:43:00,54.0,-99.9,29.81,WSW,240,21.0,-999.0,-999,-99.99,,,-99.99,,2013-10-17 23:43:00,
2013-10-17 18:53:00,54.0,-99.9,29.81,WSW,240,21.0,-999.0,-999,-99.99,,,-99.99,,2013-10-17 23:53:00,
2013-10-17 23:00:00,50.0,-99.9,29.84,WNW,290,25.0,-999.0,-999,-99.99,,,-99.99,,2013-10-18 04:00:00,
2013-10-17 23:44:00,50.0,-99.9,29.84,WNW,290,25.0,-999.0,-999,-99.99,,,-99.99,,2013-10-18 04:44:00,
2013-10-17 23:54:00,50.0,-99.9,29.84,WNW,290,25.0,-999.0,-999,-99.99,,,-99.99,,2013-10-18 04:54:00,